Location: Cowley
(49.5667°N, 114.0667°W)
Time: 11:14:52
(UTC+00:00)

Envisat - Pass Details

Date: 03 December 2021
Orbit: 764 x 766 km, 98.2° (Epoch: 23 January)

Event Time Altitude Azimuth Distance (km) Brightness Sun altitude
Rises 12:48:21 0° 14° (NNE) 3,247 6.3 -22.7°
Reaches altitude 10° 12:50:40 10° 14° (NNE) 2,316 5.5 -22.3°
Maximum altitude 12:55:47 89° 103° (ESE) 773 2.9 -21.5°
Drops below altitude 10° 13:00:52 10° 195° (SSW) 2,297 5.4 -20.7°
Sets 13:03:10 0° 196° (SSW) 3,219 6.2 -20.3°
